Location: Brantley
(31.5822°N, 86.2569°W)
Time: 09:44:54
(UTC+00:00)

Courier 1B - Visible Passes

Search period start: 17 February 2026 00:00
Search period end: 27 February 2026 00:00
Orbit: 962 x 1208 km, 28.3° (Epoch: 16 February)

Date Brightness Start Highest point End Pass type
(mag) Time Alt. Az. Time Alt. Az. Time Alt. Az.
17 Feb 9.0 00:05:56 10° SSW 00:11:52 28° SSE 00:17:54 11° E visible
17 Feb 8.2 01:58:22 10° WSW 02:04:47 54° S 02:04:47 54° S visible
18 Feb 8.2 01:04:42 10° SW 01:11:40 49° SSE 01:14:23 35° ESE visible
18 Feb 9.4 02:58:16 10° W 03:01:16 27° WSW 03:01:16 27° WSW visible
19 Feb 8.5 00:11:12 10° SW 00:17:45 40° SSE 00:23:56 13° E visible
19 Feb 8.0 02:04:24 10° WSW 02:10:50 62° SSW 02:10:50 62° SSW visible
20 Feb 7.9 01:10:37 10° WSW 01:17:42 61° S 01:20:22 40° ESE visible
20 Feb 9.5 03:04:28 10° W 03:07:15 25° W 03:07:15 25° W visible
21 Feb 8.1 00:16:56 10° WSW 00:23:46 54° SSE 00:29:53 15° E visible
21 Feb 8.0 02:10:34 10° W 02:16:46 62° SW 02:16:46 62° SW visible
22 Feb 7.8 01:16:44 10° WSW 01:23:50 69° S 01:26:17 44° ESE visible
22 Feb 9.6 03:10:43 10° W 03:13:10 23° W 03:13:10 23° W visible
23 Feb 7.9 00:22:58 10° WSW 00:29:52 65° S 00:35:48 17° E visible
23 Feb 8.2 02:16:48 10° W 02:22:41 56° SW 02:22:41 56° SW visible
24 Feb 7.8 01:22:57 10° W 01:30:00 69° S 01:32:11 47° ESE visible
24 Feb 9.8 03:17:03 10° W 03:19:04 20° W 03:19:04 20° W visible
25 Feb 7.9 00:29:09 10° W 00:36:01 69° S 00:41:43 18° E visible
25 Feb 8.4 02:23:06 10° W 02:28:36 47° SW 02:28:36 47° SW visible
26 Feb 7.9 01:29:13 10° W 01:36:08 61° S 01:38:08 46° SE visible
26 Feb 10.0 03:23:35 10° W 03:25:01 16° WSW 03:25:01 16° WSW visible
